• Join FlightAware (Why Join?)
  • Login
  • US Flag 
06:57AM EDT


 

Airport Tracker/Info


-or-


 

Live Flight TrackerFlight Track Log ✈ ASQ4301 ✈ 10-May-2013 ✈ KIAH - KAEX

Flight Track Log - Related Links

Times and Time Zones

All times are in EDT time to prevent confusion due to time zone crossing. See the ASQ4301 flight status page for this flight to view local times or setup timezone preferences in your user account.

Time Position Orientation Groundspeed Altitude Reporting Facility
EDT Latitude Longitude Course Direction KTS MPH feet Rate Location/Type
09:43PM 29.9381 -95.3608 214° Southwest 199 229 2,000  Level Houston Center
09:44PM 29.9847 -95.3650 356° North 235 270 3,800 1,440 Climbing Houston Center
09:45PM 30.0647 -95.3214 25° Northeast 277 319 5,000 600 Climbing Houston Center
09:46PM 30.1261 -95.2908 23° Northeast 269 310 5,200 1,500 Climbing Houston Center
09:47PM 30.2006 -95.2678 15° North 275 316 8,100 2,460 Climbing Houston Center
09:48PM 30.2656 -95.2144 35° Northeast 291 335 10,300 1,620 Climbing Houston Center
09:49PM 30.3458 -95.1172 46° Northeast 326 375 11,500 1,380 Climbing Houston Center
09:50PM 30.4164 -95.0233 49° Northeast 360 414 13,200 1,680 Climbing Houston Center
09:51PM 30.4856 -94.9267 50° Northeast 379 436 15,000 1,800 Climbing Houston Center
09:52PM 30.5583 -94.8247 50° Northeast 397 457 16,900 1,620 Climbing Houston Center
09:53PM 30.6300 -94.7186 52° Northeast 412 474 18,300 1,020 Climbing Houston Center
09:54PM 30.6947 -94.5994 58° Northeast 437 503 19,000 300 Climbing Houston Center
09:55PM 30.7417 -94.4569 69° East 467 537 19,000  Level Houston Center
09:56PM 30.7867 -94.3119 70° East 478 550 19,000  Level Houston Center
09:57PM 30.8342 -94.1628 70° East 476 548 19,000  Level Houston Center
09:58PM 30.8767 -94.0236 70° East 477 549 19,000  Level Houston Center
09:59PM 30.9247 -93.8719 70° East 478 550 19,000  Level Houston Center
10:00PM 30.9669 -93.7328 70° East 477 549 19,000 -240 Level Houston Center
10:01PM 31.0147 -93.5808 70° East 475 547 18,600 -1,260 Descending Houston Center
10:02PM 31.0569 -93.4436 70° East 470 541 16,500 -2,280 Descending Houston Center
10:03PM 31.1097 -93.3131 65° Northeast 417 480 14,000 -2,220 Descending Houston Center
10:04PM 31.1675 -93.1839 62° Northeast 406 467 11,600 -1,860 Descending Houston Center
10:05PM 31.2067 -93.0883 64° Northeast 338 389 10,300 -1,320 Descending Houston Center
10:05PM 31.2114 -93.0789 60° Northeast 370 426 10,300 -1,380 Level Houston Center
10:06PM 31.2414 -93.0072 64° Northeast 295 339 9,100 -1,500 Descending Houston Center
10:06PM 31.2486 -92.9897 64° Northeast 318 366 8,800 -1,680 Descending Houston Center
10:07PM 31.2758 -92.9239 64° Northeast 287 330 7,400 -1,980 Descending Houston Center
10:07PM 31.2919 -92.8900 61° Northeast 293 337 6,800 -1,740 Descending Houston Center
10:08PM 31.3125 -92.8403 64° Northeast 280 322 5,700 -1,680 Descending Houston Center
10:08PM 31.3267 -92.8081 63° Northeast 283 326 5,100 -1,800 Descending Houston Center
10:09PM 31.3489 -92.7567 63° Northeast 270 311 3,900 -1,620 Descending Houston Center
10:09PM 31.3619 -92.7311 59° Northeast 273 314 3,500 -1,500 Descending Houston Center
10:10PM 31.3819 -92.6853 63° Northeast 265 305 2,400 -1,380 Descending Houston Center
10:10PM 31.3950 -92.6556 63° Northeast 264 304 2,100 -1,140 Descending Houston Center
10:11PM 31.3917 -92.6114 95° East 219 252 1,300 -840 Descending Houston Center
10:11PM 31.3828 -92.5978 127° Southeast 217 250 1,300 -600 Level Houston Center
10:12PM 31.3628 -92.5822 146° Southeast 116 133 700 -720 Descending Houston Center
10:12PM 31.3525 -92.5719 140° Southeast 165 190 600 -480 Descending Houston Center
10:13PM 31.3278 -92.5508 144° Southeast 148 170 100 -540 Descending Houston Center